Weather History for Kerrville, TX

Change the Weather History Date:

Thursday, April 25, 2013

  Actual Average (KHDO) Record (KHDO)
Temperature  
Mean Temperature 58 °F -  
Max Temperature 65 °F 80 °F 100 °F (2011)
Min Temperature 53 °F 58 °F 44 °F (2001)
Degree Days  
Heating Degree Days 6    
Growing Degree Days 8 (Base 50)    
Moisture  
Dew Point 40 °F    
Average Humidity 50    
Maximum Humidity 66    
Minimum Humidity 38    
Precipitation  
Precipitation 0.00 in - - ()
Sea Level Pressure  
Sea Level Pressure 30.25 in    
Wind  
Wind Speed 6 mph (East)    
Max Wind Speed 13 mph    
Max Gust Speed 16 mph    
Visibility 10 miles    
Events Rain    
Averages and records for this station are not official NWS values.
T = Trace of Precipitation, MM = Missing Value Source: NWS Daily Summary

Daily Weather History Graph

Daily Weather History Graph

Search for Another Location

Airport:

Trip Planner

Search our weather history database for the weather conditions in past years. The results will help you decide how hot, cold, wet, or windy it might be!

Date:

Astronomy

Apr. 25, 2013 Rise Set
Actual Time 6:58 AM CDT 8:10 PM CDT
Civil Twilight 6:33 AM CDT 8:35 PM CDT
Nautical Twilight 6:04 AM CDT 9:04 PM CDT
Astronomical Twilight 5:33 AM CDT 9:35 PM CDT
Moon 8:22 PM CDT (4/25) 6:42 AM CDT (4/25)
Length of Visible Light 14h 01m
Length of Day
13h 11m
Full, 100% of the Moon is Illuminated
Apr 25
Full
Apr 25
Full
May 2
Last Quarter
May 9
New
May 17
First Quarter

Hourly Weather History & Observations

Time (CDT) Temp. Dew Point Humidity Pressure Visibility Wind Dir Wind Speed Gust Speed Precip Events Conditions
12:15 AM 56.3 °F 33.8 °F 43% 30.26 in 10.0 mi East 6.9 mph - N/A   Overcast
12:35 AM 56.3 °F 34.9 °F 45% 30.26 in 10.0 mi East 8.1 mph - N/A   Overcast
12:55 AM 56.3 °F 35.6 °F 46% 30.26 in 10.0 mi ENE 5.8 mph - N/A   Overcast
1:15 AM 56.3 °F 35.6 °F 46% 30.26 in 10.0 mi ENE 5.8 mph - N/A   Overcast
1:35 AM 56.3 °F 35.8 °F 46% 30.26 in 10.0 mi ENE 4.6 mph - N/A   Overcast
1:55 AM 56.3 °F 36.3 °F 47% 30.26 in 10.0 mi NE 3.5 mph - N/A   Overcast
2:15 AM 56.3 °F 36.7 °F 48% 30.26 in 10.0 mi Calm Calm - N/A   Overcast
2:35 AM 56.3 °F 37.4 °F 49% 30.25 in 10.0 mi ENE 3.5 mph - N/A   Overcast
2:55 AM 56.3 °F 37.9 °F 50% 30.26 in 10.0 mi ENE 4.6 mph - N/A   Overcast
3:15 AM 55.9 °F 37.9 °F 51% 30.25 in 10.0 mi ENE 3.5 mph - N/A   Overcast
3:35 AM 55.2 °F 37.2 °F 51% 30.24 in 10.0 mi East 6.9 mph - N/A   Overcast
3:55 AM 54.0 °F 36.3 °F 51% 30.25 in 10.0 mi ENE 4.6 mph - N/A   Overcast
4:15 AM 53.8 °F 36.3 °F 52% 30.26 in 10.0 mi NE 4.6 mph - N/A   Overcast
4:35 AM 53.6 °F 35.6 °F 51% 30.26 in 10.0 mi NE 3.5 mph - N/A   Overcast
4:55 AM 53.6 °F 35.8 °F 51% 30.27 in 10.0 mi NE 4.6 mph - N/A   Overcast
5:15 AM 53.6 °F 36.1 °F 52% 30.26 in 10.0 mi Calm Calm - N/A   Overcast
5:35 AM 53.6 °F 36.7 °F 53% 30.27 in 10.0 mi ENE 4.6 mph - N/A   Overcast
5:55 AM 53.6 °F 37.0 °F 53% 30.27 in 10.0 mi Calm Calm - N/A   Overcast
6:15 AM 53.6 °F 37.4 °F 54% 30.27 in 10.0 mi ENE 3.5 mph - N/A   Overcast
6:35 AM 53.6 °F 37.8 °F 55% 30.27 in 10.0 mi NE 6.9 mph - N/A   Overcast
6:55 AM 53.6 °F 38.1 °F 56% 30.28 in 10.0 mi NE 6.9 mph - N/A   Overcast
7:15 AM 53.6 °F 38.3 °F 56% 30.29 in 10.0 mi NE 4.6 mph - N/A   Overcast
7:35 AM 53.6 °F 38.5 °F 57% 30.29 in 10.0 mi NNE 5.8 mph - N/A   Overcast
7:55 AM 53.6 °F 38.3 °F 56% 30.29 in 10.0 mi ENE 5.8 mph - N/A   Overcast
8:15 AM 53.6 °F 38.3 °F 56% 30.30 in 10.0 mi ENE 8.1 mph - N/A   Overcast
8:35 AM 54.1 °F 38.7 °F 56% 30.30 in 10.0 mi NE 10.4 mph - N/A   Overcast
8:55 AM 56.3 °F 40.3 °F 55% 30.30 in 10.0 mi NE 10.4 mph - N/A   Overcast
9:15 AM 56.3 °F 40.3 °F 55% 30.30 in 10.0 mi ENE 6.9 mph - N/A   Overcast
9:35 AM 56.3 °F 39.6 °F 53% 30.31 in 10.0 mi ENE 8.1 mph - N/A   Overcast
9:55 AM 56.3 °F 39.4 °F 53% 30.32 in 10.0 mi East 9.2 mph - N/A   Overcast
10:15 AM 56.3 °F 39.6 °F 53% 30.32 in 10.0 mi ENE 6.9 mph - N/A   Overcast
10:35 AM 56.7 °F 39.7 °F 53% 30.32 in 10.0 mi East 8.1 mph - N/A   Overcast
10:55 AM 57.9 °F 40.6 °F 53% 30.31 in 10.0 mi ENE 5.8 mph - N/A   Overcast
11:15 AM 58.6 °F 41.0 °F 52% 30.32 in 10.0 mi East 8.1 mph - N/A   Overcast
11:35 AM 59.0 °F 40.8 °F 51% 30.32 in 10.0 mi East 5.8 mph - N/A   Overcast
11:55 AM 60.6 °F 42.1 °F 50% 30.31 in 10.0 mi East 10.4 mph - N/A   Overcast
12:15 PM 61.2 °F 42.1 °F 50% 30.31 in 10.0 mi East 3.5 mph - N/A   Overcast
12:35 PM 61.2 °F 41.9 °F 49% 30.30 in 10.0 mi ESE 4.6 mph - N/A   Overcast
12:55 PM 61.7 °F 42.3 °F 49% 30.29 in 10.0 mi East 9.2 mph 16.1 mph N/A   Overcast
1:15 PM 62.8 °F 42.4 °F 47% 30.28 in 10.0 mi East 9.2 mph - N/A   Overcast
1:35 PM 63.1 °F 43.2 °F 48% 30.27 in 10.0 mi ESE 9.2 mph - N/A   Overcast
1:55 PM 64.8 °F 43.5 °F 46% 30.27 in 10.0 mi East 6.9 mph - N/A   Overcast
2:15 PM 64.4 °F 44.6 °F 49% 30.26 in 10.0 mi SE 9.2 mph - N/A   Overcast
2:35 PM 64.2 °F 44.4 °F 49% 30.26 in 10.0 mi East 6.9 mph - N/A   Overcast
2:55 PM 64.9 °F 44.1 °F 47% 30.25 in 10.0 mi ESE 6.9 mph - N/A   Overcast
3:15 PM 64.6 °F 43.7 °F 47% 30.24 in 10.0 mi East 6.9 mph - N/A   Overcast
3:35 PM 63.7 °F 43.9 °F 48% 30.24 in 10.0 mi SE 6.9 mph - N/A   Overcast
3:55 PM 63.1 °F 43.7 °F 49% 30.24 in 10.0 mi SE 9.2 mph - N/A   Overcast
4:15 PM 63.5 °F 43.7 °F 48% 30.23 in 10.0 mi ESE 6.9 mph - N/A   Overcast
4:35 PM 63.7 °F 43.0 °F 47% 30.21 in 10.0 mi SE 8.1 mph - N/A   Overcast
4:55 PM 64.6 °F 42.6 °F 45% 30.20 in 10.0 mi SE 8.1 mph - N/A   Overcast
5:15 PM 64.2 °F 41.0 °F 43% 30.20 in 10.0 mi SE 9.2 mph - N/A   Overcast
5:35 PM 64.8 °F 41.2 °F 42% 30.20 in 10.0 mi SE 10.4 mph - N/A   Overcast
5:55 PM 64.2 °F 39.6 °F 40% 30.20 in 10.0 mi SE 12.7 mph - N/A   Overcast
6:15 PM 63.5 °F 37.2 °F 38% 30.20 in 10.0 mi ESE 10.4 mph - N/A   Overcast
6:35 PM 62.8 °F 38.3 °F 40% 30.19 in 10.0 mi ESE 11.5 mph - N/A   Overcast
6:55 PM 62.6 °F 38.5 °F 41% 30.20 in 10.0 mi SE 8.1 mph - N/A   Overcast
7:15 PM 62.6 °F 39.2 °F 42% 30.20 in 10.0 mi SE 8.1 mph - N/A   Overcast
7:35 PM 62.6 °F 38.3 °F 41% 30.20 in 10.0 mi ESE 8.1 mph - N/A   Overcast
7:55 PM 62.2 °F 39.2 °F 43% 30.19 in 10.0 mi ESE 9.2 mph - N/A   Overcast
8:15 PM 61.7 °F 39.6 °F 44% 30.19 in 10.0 mi ESE 4.6 mph - N/A   Overcast
8:35 PM 61.2 °F 40.6 °F 47% 30.20 in 10.0 mi ESE 10.4 mph - N/A   Overcast
8:55 PM 61.2 °F 41.2 °F 48% 30.19 in 10.0 mi ESE 8.1 mph - N/A   Overcast
9:15 PM 61.2 °F 41.7 °F 49% 30.20 in 10.0 mi ESE 8.1 mph - N/A   Overcast
9:35 PM 61.2 °F 42.3 °F 50% 30.20 in 10.0 mi ESE 8.1 mph - N/A   Overcast
9:55 PM 61.2 °F 42.8 °F 51% 30.20 in 10.0 mi ESE 10.4 mph - N/A   Overcast
10:15 PM 61.2 °F 43.2 °F 52% 30.20 in 10.0 mi ESE 5.8 mph - N/A   Overcast
10:35 PM 61.2 °F 44.2 °F 54% 30.20 in 10.0 mi ESE 9.2 mph - N/A   Overcast
10:55 PM 61.2 °F 44.8 °F 55% 30.20 in 10.0 mi SE 6.9 mph - N/A   Overcast
11:15 PM 61.0 °F 45.5 °F 57% 30.20 in 10.0 mi SE 6.9 mph - N/A   Overcast
11:35 PM 60.4 °F 46.2 °F 59% 30.21 in 10.0 mi SE 5.8 mph - N/A Rain Light Rain
11:55 PM 58.8 °F 47.7 °F 66% 30.20 in 10.0 mi SE 8.1 mph - N/A   Overcast